Regional Weather Roundup
Issued by NWS

Home | Current Version | Previous Version | Text Only | Print | Product List | Glossary On
Versions: 1 2 3 4 5 6 7 8 9 10 11 12 13 14 15 16 17 18 19 20 21 22 23 24 25 26 27 28 29 30 31 32 33 34 35 36 37 38 39 40 41 42 43 44 45 46 47 48 49 50
000
ASUS42 KTBW 270017
RWRFL
FLORIDA REGIONAL WEATHER ROUNDUP
NATIONAL WEATHER SERVICE TAMPA BAY RUSKIN FL
800 PM EDT FRI MAY 26 2017

NOTE: "FAIR" INDICATES FEW OR NO CLOUDS BELOW 12,000 FEET WITH NO
SIGNIFICANT WEATHER AND/OR OBSTRUCTIONS TO VISIBILITY.

FLZ001>010-012>015-112-114-115-270100-
PANHANDLE FLORIDA

CITY           SKY/WX    TMP DP  RH WIND       PRES   REMARKS
PENSACOLA      CLEAR     77  62  59 S8        30.03S
PENSACOLA NAS  CLEAR     76  62  62 SW7       30.03R
MILTON NAS     PTCLDY    76  60  57 S10       30.03
CRESTVIEW      CLEAR     79  57  46 S5        30.04S
DUKE FIELD     FAIR      78  59  50 S9        30.02S
VALPARAISO     PTCLDY    77  61  58 SW8       30.04R
MARY ESTHER    CLEAR     76  60  56 S6        30.02S
PANAMA CITY    FAIR      77  62  59 S8        30.03R
TYNDALL AFB    CLEAR     76  62  61 W6        30.04S
APALACHICOLA   CLEAR     77  64  64 W9        30.04S

STATION/POSITION SKY/WX   TEMP    WIND        PRES    WAVE   SWELL
                          AIR SEA DIR/SP/G            HT/PER HT/PER
                          (F)     (DEG/KT/KT) (MB)    (FT/S) (FT/S)
30.1N   87.6W              76 78  180/  6/  8 1016.7R   2/ 4   2/ 7
29.2N   88.2W              76 79  160/  8/  8 1016.5S   2/ 7   2/ 7
28.8N   86.0W              76 78  180/  6/  6 1017.2S   1/ 8   2/ 8
PANAMA CITY BEAC           76 80  220/  6/  8 1017.3F
TOWER C                    75     210/  6/  7 1017.8S
28.5N   84.5W              77 83  250/  2/  4 1017.4    2/ 6   2/ 6

$$
FLZ011-016>038-118-127-128-134-139-239-270100-
NORTH FLORIDA

CITY           SKY/WX    TMP DP  RH WIND       PRES   REMARKS
MARIANNA       CLEAR     83  63  50 W10       30.00R
TALLAHASSEE    PTCLDY    81  62  52 S7        30.02R
PERRY          CLEAR     78  61  56 SW7       30.03S
CROSS CITY     CLEAR     77  61  57 W7        30.03S
LAKE CITY      FAIR      81  52  36 N5        30.02R
GAINESVILLE    CLEAR     83  52  34 NW5       30.01R
WILLISTON      CLEAR     82  63  51 SW9       30.02R
PALATKA        FAIR      82  55  39 CALM      30.01S
MAYPORT NAS    CLEAR     77  61  57 SE12      30.00S
JACKSONVILLE   PTCLDY    80  62  54 NE7       29.99R
JAX NAS        PTCLDY    87  52  29 W8        30.00S
FERNANDINA BEA FAIR      79  63  57 SE8       30.00R
ST AUGUSTINE   CLEAR     75  61  61 SE10      30.03R
PALM COAST     FAIR      75  59  56 SE8       30.02R

STATION/POSITION SKY/WX   TEMP    WIND        PRES    WAVE   SWELL
                          AIR SEA DIR/SP/G            HT/PER HT/PER
                          (F)     (DEG/KT/KT) (MB)    (FT/S) (FT/S)
SHELL POINT      NOT AVBL
KEATON BEACH               77     270/  5/  5 1016.7S
CEDAR KEY                  77     290/  8/ 10 1017.3F
FERNANDINA                 79 78  150/  7/  9 1016.8R
30.7N   81.3W                 79                N/A     2/ 7
MAYPORT                    77 78  150/  8/ 12 1016.3R
31.4N   80.9W              77 78  200/ 12/ 12 1015.5R   2/ 8   2/ 8
ST AUGUSTINE               75 78  150/ 11/ 11 1017.5R

$$
FLZ040-043>046-052-053-057-058-063-144-270100-
INTERIOR CENTRAL FLORIDA

CITY           SKY/WX    TMP DP  RH WIND       PRES   REMARKS
OCALA          CLEAR     82  63  52 W6        30.03R
THE VILLAGES     N/A     84  48  28 MISG      29.92R
LEESBURG       CLEAR     84  51  31 VRB3      30.02R
SANFORD        CLEAR     78  57  48 E12       30.02R
ORLANDO EXEC   CLEAR     87  52  29 VRB6      30.01R
ORLANDO INTL   CLEAR     84  54  35 NW6       30.01R
KISSIMMEE      CLEAR     86  52  30 W10       30.02R
WINTER HAVEN   CLEAR     83  46  27 NW10      30.03R
LAKELAND       CLEAR     82  52  34 NW9       30.03S
BARTOW         FAIR      84  52  32 W7        30.03R
OKEECHOBEE     CLEAR     82  68  61 S3        30.01S

$$
FLZ041-047-054-059-064-141-147-270100-
EAST CENTRAL FLORIDA

CITY           SKY/WX    TMP DP  RH WIND       PRES   REMARKS
DAYTONA BEACH  PTCLDY    75  60  59 E7        30.02S
DELAND         CLEAR     77  57  50 E10       30.01S
NEW SMYRNA BEA CLEAR     75  61  60 E7        30.04R
JFK SPACE CTR  CLEAR     75  61  60 SE6       30.02R
TITUSVILLE     CLEAR     81  63  54 E8        30.04
CAPE CANAVERAL CLEAR     77  61  57 SE6       30.02R
PATRICK AFB    CLEAR     76  62  63 E9        30.03R
MELBOURNE      CLEAR     78  58  49 E9        30.03R
VERO BEACH     CLEAR     76  64  66 E6        30.03S
FT PIERCE      CLEAR     79  68  69 E7        30.02S
STUART         CLEAR     81  72  74 SE8       30.04R

STATION/POSITION SKY/WX   TEMP    WIND        PRES    WAVE   SWELL
                          AIR SEA DIR/SP/G            HT/PER HT/PER
                          (F)     (DEG/KT/KT) (MB)    (FT/S) (FT/S)
28.5N   80.2W              76 77  130/  4/  6 1017.8R   2/ 8   2/ 8
28.9N   78.5W              78 79  290/ 10/ 14 1017.0R   3/ 8   3/ 8
TRIDENT PIER               75 78  100/  6/  9 1018.5R
28.4N   80.5W                 75                N/A     1/ 7
27.5N   80.2W                 74                N/A     2/ 7

$$
FLZ050-056-061-142-242-148-248-149-249-151-251-155-255-
160-260-270100-
WEST CENTRAL FLORIDA

CITY           SKY/WX    TMP DP  RH WIND       PRES   REMARKS
CRYSTAL RIVER  FAIR      75  61  60 W7        30.04R
INVERNESS      FAIR      77  61  57 CALM      30.04R
BROOKSVILLE    CLEAR     76  55  48 W7        30.05R
CLEARWATER AIR FAIR      75  59  57 NW5       30.04S
ST PETE CLEARW CLEAR     77  59  53 W6        30.04S
TAMPA INTL     PTCLDY    80  57  45 W8        30.04S
TAMPA EXEC     CLEAR     81  54  39 NW5       30.04S
PLANT CITY     CLEAR     82  54  36 NW7       30.05S
MACDILL AFB    CLEAR     78  61  54 NW5       30.04R
PETER O KNIGHT CLEAR     81  63  54 W5        30.04S
ST PETERSBURG  CLEAR     81  60  48 NW6       30.02S
SARASOTA       CLEAR     79  63  57 W8        30.03S
VENICE         FAIR      81  70  69 NW9       30.05R

STATION/POSITION SKY/WX   TEMP    WIND        PRES    WAVE   SWELL
                          AIR SEA DIR/SP/G            HT/PER HT/PER
                          (F)     (DEG/KT/KT) (MB)    (FT/S) (FT/S)
27.3N   84.2W                 79                N/A     2/ 7
CLEARWATER BEACH           78 83  300/  5/  6 1017.5S
MIDDLE TAMPA BAY           78     300/  8/ 10 1017.6R
VENICE                     80 83  330/  9/ 10 1016.8R

$$
FLZ066-069-070-075>078-162-262-165-265-270100-
SOUTHWEST FLORIDA AND KEYS

CITY           SKY/WX    TMP DP  RH WIND       PRES   REMARKS
PUNTA GORDA    CLEAR     84  68  58 W10       30.04R
FT MYERS       CLEAR     86  69  56 NW10      30.02R
SOUTHWEST INTL CLEAR     85  70  60 NW8       30.02R
NAPLES         CLEAR     84  73  69 NW6       30.02R
MARCO ISLAND   CLEAR     84  73  70 W6        30.02S
IMMOKALEE      FAIR      86  72  62 W6        30.02S
MARATHON       CLEAR     87  79  76 N3        30.02R HX 101
KEY WEST NAS   PTCLDY    85  78  80 NE8       30.02R HX  96
KEY WEST INTL  CLEAR     86  79  79 N6        30.03R HX  99

STATION/POSITION SKY/WX   TEMP    WIND        PRES    WAVE   SWELL
                          AIR SEA DIR/SP/G            HT/PER HT/PER
                          (F)     (DEG/KT/KT) (MB)    (FT/S) (FT/S)
NAPLES                        87  320/  6/  8 1016.7R
DRY TORTUGAS               83      60/  9/ 10 1016.8R
SAND KEY                   84      40/ 10/ 11 1017.1R
LONG KEY                   85 87   CALM  /  1 1016.4R
MOLASSES REEF              85 82   CALM  /  1 1016.7S

$$
FLZ067-068-071>074-168-172>174-270100-
SOUTHEAST FLORIDA

CITY           SKY/WX    TMP DP  RH WIND       PRES   REMARKS
W PALM BEACH   PTCLDY    79  69  71 E10       30.03S
BOCA RATON     PTCLDY    81  73  78 SE7       30.03S
FT LAUDER-EXEC PTCLDY    84  71  65 E9        30.03R
FT LAUDERDALE  PTCLDY    82  75  79 E9        30.02R
POMPANO BEACH  PTCLDY    82  74  76 E9        30.03R
PEMBROKE PINES PTCLDY    83  74  74 E7        30.04R
OPA LOCKA      CLEAR     83  77  82 SE10      30.02S
MIAMI          MOCLDY    84  75  74 SE10      30.02S
WEST KENDALL   CLEAR     84  76  76 SE6       30.02R
HOMESTEAD      CLEAR     82  81  98 SE3       30.01S

STATION/POSITION SKY/WX   TEMP    WIND        PRES    WAVE   SWELL
                          AIR SEA DIR/SP/G            HT/PER HT/PER
                          (F)     (DEG/KT/KT) (MB)    (FT/S) (FT/S)
PORT EVERGLADES            82      70/  6/  8 1016.6R
VIRGINIA KEY               82 85   80/  6/  8 1016.0R
LAKE WORTH                 79 82              1017.7S
FOWEY ROCKS                81 82   90/  9/ 10 1017.2R
SETTLEMENT POINT           79      40/  8/  8 1017.2F

$$




USA.gov is the U.S. government's official web portal to all federal, state and local government web resources and services.